If you wish to contribute or participate in the discussions about articles you are invited to join SKYbrary as a registered user

 Actions

Antananarivo/Ivato International Airport

From SKYbrary Wiki

FMMI
Airport
ICAO: FMMI – IATA: TNR
Summary
Name Antananarivo/Ivato International Airport
Region Africa
Territory Madagascar MG.gif
Location Antananarivo, Antananarivo Province
Serving Antananarivo
Elevation 1,279.55 m
4,198 ft
4,198 ft1,279.55 m
Coordinates -18° 47' 47.0004", 47° 28' 33.9996"
Runways
Designator Length Width Surface ROPS
11/29 3100 m10,170.604 ft 45 m147.638 ft ASP yes/yes


METAR
Observation FMMI 211300Z 10004KT 030V150 9999 VCSH BKN023CB 26/16 Q1014 TEMPO TS
Station Antananarivo / Ivato
Date/Time 21 February 2018 13:00:00
Wind direction 100°
Wind speed 04 kts
Lowest cloud amount broken clouds
Temperature 26°C
Dew point 16°C
Humidity 54%
QNH 1014 hPa
Weather condition in vicinity: showers

Description

International airport 16 km8.639 nm
16,000 m
52,493.438 ft
north of Antananarivo, the capital city of Madagascar.

Climatology

Antananarivo has a sub-tropical highland climate (Köppen climate classification Cwb) characterised by mild, dry winters and warm, rainy summers.

Maps

Terrain

Loading map...

Airport Layout

Loading map...


Accidents & Serious Incidents at or in vicinity of FMMI

None on SKYbrary